Time,TemperatureF,DewpointF,PressureIn,WindDirection,WindDirectionDegrees,WindSpeedMPH,WindSpeedGustMPH,Humidity,HourlyPrecipIn,Conditions,Clouds,dailyrainin,SoftwareType,DateUTC
2013-05-31 00:00:00,72.8,70.7,29.59,ESE,121,5.0,5.0,93,0.00,,,2.07,Wunderground v.1.15,2013-05-31 05:00:00,
2013-05-31 00:14:00,72.8,70.7,29.59,SSE,161,5.0,5.0,93,0.00,,,0.00,Wunderground v.1.15,2013-05-31 05:14:00,
2013-05-31 00:20:00,72.8,70.7,29.59,SE,127,4.0,6.0,93,0.00,,,0.00,Wunderground v.1.15,2013-05-31 05:20:00,
2013-05-31 00:34:00,72.6,70.5,29.59,SE,140,3.0,3.0,93,0.00,,,0.00,Wunderground v.1.15,2013-05-31 05:34:00,
2013-05-31 00:40:00,72.6,70.5,29.59,SSE,149,2.0,3.0,93,0.00,,,0.00,Wunderground v.1.15,2013-05-31 05:40:00,
2013-05-31 00:54:00,72.6,70.5,29.59,SSE,162,3.0,5.0,93,0.00,,,0.00,Wunderground v.1.15,2013-05-31 05:54:00,
2013-05-31 01:00:00,72.6,70.5,29.58,South,171,4.0,4.0,93,0.00,,,0.00,Wunderground v.1.15,2013-05-31 06:00:00,
2013-05-31 01:14:00,72.9,70.8,29.58,South,179,4.0,4.0,93,0.00,,,0.00,Wunderground v.1.15,2013-05-31 06:14:00,
2013-05-31 01:20:00,73.1,71.0,29.57,South,182,5.0,5.0,93,0.00,,,0.00,Wunderground v.1.15,2013-05-31 06:20:00,
2013-05-31 01:34:00,73.2,71.1,29.58,SE,146,4.0,4.0,93,0.00,,,0.00,Wunderground v.1.15,2013-05-31 06:34:00,
2013-05-31 01:40:00,73.3,71.2,29.57,SSE,155,3.0,7.0,93,0.00,,,0.00,Wunderground v.1.15,2013-05-31 06:40:00,
2013-05-31 01:54:00,73.6,71.1,29.57,SSE,149,4.0,4.0,92,0.00,,,0.00,Wunderground v.1.15,2013-05-31 06:54:00,
2013-05-31 02:00:00,73.7,71.2,29.57,SSE,152,5.0,13.0,92,0.00,,,0.00,Wunderground v.1.15,2013-05-31 07:00:00,
2013-05-31 02:14:00,74.0,71.2,29.57,South,183,5.0,5.0,91,0.00,,,0.00,Wunderground v.1.15,2013-05-31 07:14:00,
2013-05-31 02:20:00,74.1,71.3,29.57,SSE,151,6.0,6.0,91,0.00,,,0.00,Wunderground v.1.15,2013-05-31 07:20:00,
2013-05-31 02:34:00,74.4,71.3,29.57,SSW,192,5.0,10.0,90,0.00,,,0.00,Wunderground v.1.15,2013-05-31 07:34:00,
2013-05-31 02:40:00,74.5,71.4,29.56,SSE,166,5.0,13.0,90,0.00,,,0.00,Wunderground v.1.15,2013-05-31 07:40:00,
2013-05-31 02:54:00,74.8,71.7,29.56,SSE,165,5.0,6.0,90,0.00,,,0.00,Wunderground v.1.15,2013-05-31 07:54:00,
2013-05-31 03:00:00,75.0,71.5,29.57,SSE,155,6.0,7.0,89,0.00,,,0.00,Wunderground v.1.15,2013-05-31 08:00:00,
2013-05-31 03:14:00,76.7,72.2,29.57,SE,142,7.0,11.0,86,0.00,,,0.00,Wunderground v.1.15,2013-05-31 08:14:00,
2013-05-31 03:20:00,77.0,72.1,29.57,SSW,196,7.0,11.0,85,0.00,,,0.00,Wunderground v.1.15,2013-05-31 08:20:00,
2013-05-31 03:34:00,78.0,72.1,29.57,SSE,161,7.0,7.0,82,0.00,,,0.00,Wunderground v.1.15,2013-05-31 08:34:00,
2013-05-31 03:40:00,78.0,72.1,29.57,SE,143,5.0,7.0,82,0.00,,,0.00,Wunderground v.1.15,2013-05-31 08:40:00,
2013-05-31 03:54:00,78.7,72.0,29.57,SSE,147,6.0,6.0,80,0.00,,,0.00,Wunderground v.1.15,2013-05-31 08:54:00,
2013-05-31 04:00:00,78.9,71.8,29.57,South,188,6.0,6.0,79,0.00,,,0.00,Wunderground v.1.15,2013-05-31 09:00:00,
2013-05-31 04:14:00,78.9,71.8,29.58,South,182,6.0,7.0,79,0.00,,,0.00,Wunderground v.1.15,2013-05-31 09:14:00,
2013-05-31 04:20:00,78.7,72.0,29.58,SSE,156,5.0,7.0,80,0.00,,,0.00,Wunderground v.1.15,2013-05-31 09:20:00,
2013-05-31 04:34:00,78.6,72.3,29.59,SSW,201,5.0,5.0,81,0.00,,,0.00,Wunderground v.1.15,2013-05-31 09:34:00,
2013-05-31 04:40:00,78.7,72.0,29.59,SSE,167,7.0,9.0,80,0.00,,,0.00,Wunderground v.1.15,2013-05-31 09:40:00,
2013-05-31 04:54:00,78.4,72.1,29.58,SSE,153,5.0,5.0,81,0.00,,,0.00,Wunderground v.1.15,2013-05-31 09:54:00,
2013-05-31 05:00:00,78.2,71.9,29.58,SE,146,5.0,5.0,81,0.00,,,0.00,Wunderground v.1.15,2013-05-31 10:00:00,
2013-05-31 05:14:00,78.0,72.1,29.59,SSE,166,6.0,10.0,82,0.00,,,0.00,Wunderground v.1.15,2013-05-31 10:14:00,
2013-05-31 05:20:00,78.0,71.7,29.58,SSE,165,6.0,10.0,81,0.00,,,0.00,Wunderground v.1.15,2013-05-31 10:20:00,
2013-05-31 05:34:00,78.0,71.7,29.58,South,178,6.0,11.0,81,0.00,,,0.00,Wunderground v.1.15,2013-05-31 10:34:00,
2013-05-31 05:40:00,77.9,72.0,29.58,SSE,159,6.0,14.0,82,0.00,,,0.00,Wunderground v.1.15,2013-05-31 10:40:00,
2013-05-31 05:54:00,77.8,71.9,29.58,South,169,7.0,7.0,82,0.00,,,0.00,Wunderground v.1.15,2013-05-31 10:54:00,
2013-05-31 06:00:00,77.7,71.8,29.59,South,177,7.0,9.0,82,0.00,,,0.00,Wunderground v.1.15,2013-05-31 11:00:00,
2013-05-31 06:14:00,77.6,71.7,29.59,SE,141,4.0,5.0,82,0.00,,,0.00,Wunderground v.1.15,2013-05-31 11:14:00,
2013-05-31 06:20:00,77.5,71.6,29.60,SSE,155,4.0,5.0,82,0.00,,,0.00,Wunderground v.1.15,2013-05-31 11:20:00,
2013-05-31 06:34:00,77.6,71.7,29.60,SSE,150,5.0,5.0,82,0.00,,,0.00,Wunderground v.1.15,2013-05-31 11:34:00,
2013-05-31 06:40:00,77.5,71.6,29.60,South,171,5.0,9.0,82,0.00,,,0.00,Wunderground v.1.15,2013-05-31 11:40:00,
2013-05-31 06:54:00,77.5,71.6,29.61,SE,146,4.0,4.0,82,0.00,,,0.00,Wunderground v.1.15,2013-05-31 11:54:00,
2013-05-31 07:00:00,77.5,71.6,29.60,SSW,200,5.0,7.0,82,0.00,,,0.00,Wunderground v.1.15,2013-05-31 12:00:00,
2013-05-31 07:14:00,77.5,71.6,29.60,South,181,5.0,7.0,82,0.00,,,0.00,Wunderground v.1.15,2013-05-31 12:14:00,
2013-05-31 07:20:00,77.5,71.6,29.61,SSE,166,5.0,7.0,82,0.00,,,0.00,Wunderground v.1.15,2013-05-31 12:20:00,
2013-05-31 07:34:00,77.7,71.4,29.62,SSE,164,5.0,5.0,81,0.00,,,0.00,Wunderground v.1.15,2013-05-31 12:34:00,
2013-05-31 07:40:00,77.8,71.9,29.62,SSW,202,3.0,5.0,82,0.00,,,0.00,Wunderground v.1.15,2013-05-31 12:40:00,
2013-05-31 07:54:00,78.1,71.8,29.63,SSW,198,5.0,5.0,81,0.00,,,0.00,Wunderground v.1.15,2013-05-31 12:54:00,
2013-05-31 08:00:00,78.1,71.4,29.63,SSE,165,4.0,4.0,80,0.00,,,0.00,Wunderground v.1.15,2013-05-31 13:00:00,
2013-05-31 08:14:00,78.0,71.7,29.64,SE,144,4.0,4.0,81,0.00,,,0.00,Wunderground v.1.15,2013-05-31 13:14:00,
2013-05-31 08:20:00,78.0,71.3,29.64,SSE,163,4.0,5.0,80,0.00,,,0.00,Wunderground v.1.15,2013-05-31 13:20:00,
2013-05-31 08:34:00,77.9,71.6,29.65,South,169,4.0,4.0,81,0.00,,,0.00,Wunderground v.1.15,2013-05-31 13:34:00,
2013-05-31 08:40:00,77.9,71.6,29.65,South,179,3.0,7.0,81,0.00,,,0.00,Wunderground v.1.15,2013-05-31 13:40:00,
2013-05-31 08:54:00,77.8,71.5,29.66,SE,144,2.0,2.0,81,0.00,,,0.00,Wunderground v.1.15,2013-05-31 13:54:00,
2013-05-31 09:00:00,77.7,71.4,29.66,South,187,2.0,4.0,81,0.00,,,0.00,Wunderground v.1.15,2013-05-31 14:00:00,
2013-05-31 09:14:00,77.7,71.4,29.66,SW,223,1.0,1.0,81,0.00,,,0.00,Wunderground v.1.15,2013-05-31 14:14:00,
2013-05-31 09:20:00,77.7,71.4,29.66,SE,139,1.0,2.0,81,0.00,,,0.00,Wunderground v.1.15,2013-05-31 14:20:00,
2013-05-31 09:34:00,78.2,71.5,29.66,SSE,156,3.0,3.0,80,0.00,,,0.00,Wunderground v.1.15,2013-05-31 14:34:00,
2013-05-31 09:40:00,78.5,71.8,29.66,South,175,3.0,4.0,80,0.00,,,0.00,Wunderground v.1.15,2013-05-31 14:40:00,
2013-05-31 09:54:00,79.8,72.3,29.66,South,188,2.0,7.0,78,0.00,,,0.00,Wunderground v.1.15,2013-05-31 14:54:00,
2013-05-31 10:00:00,80.5,72.6,29.65,SSE,158,3.0,3.0,77,0.00,,,0.00,Wunderground v.1.15,2013-05-31 15:00:00,
2013-05-31 10:14:00,81.6,72.5,29.65,South,180,4.0,4.0,74,0.00,,,0.00,Wunderground v.1.15,2013-05-31 15:14:00,
2013-05-31 10:20:00,82.1,73.0,29.64,SSW,193,3.0,10.0,74,0.00,,,0.00,Wunderground v.1.15,2013-05-31 15:20:00,
2013-05-31 10:34:00,82.5,73.4,29.65,SSE,163,4.0,4.0,74,0.00,,,0.00,Wunderground v.1.15,2013-05-31 15:34:00,
2013-05-31 10:40:00,82.8,73.3,29.64,SSE,164,4.0,5.0,73,0.00,,,0.00,Wunderground v.1.15,2013-05-31 15:40:00,
2013-05-31 10:54:00,83.4,73.4,29.65,SSE,165,4.0,4.0,72,0.00,,,0.00,Wunderground v.1.15,2013-05-31 15:54:00,
2013-05-31 11:00:00,83.3,72.9,29.64,South,175,4.0,4.0,71,0.00,,,0.00,Wunderground v.1.15,2013-05-31 16:00:00,
2013-05-31 11:14:00,83.0,73.0,29.65,South,173,6.0,8.0,72,0.00,,,0.00,Wunderground v.1.15,2013-05-31 16:14:00,
2013-05-31 11:20:00,83.1,73.1,29.65,South,186,5.0,18.0,72,0.00,,,0.00,Wunderground v.1.15,2013-05-31 16:20:00,
2013-05-31 11:34:00,83.6,73.2,29.65,South,179,4.0,6.0,71,0.00,,,0.00,Wunderground v.1.15,2013-05-31 16:34:00,
2013-05-31 11:40:00,83.3,72.9,29.65,SSE,155,4.0,9.0,71,0.00,,,0.00,Wunderground v.1.15,2013-05-31 16:40:00,
2013-05-31 11:54:00,83.3,73.3,29.65,South,179,4.0,4.0,72,0.00,,,0.00,Wunderground v.1.15,2013-05-31 16:54:00,
2013-05-31 12:00:00,83.3,72.9,29.65,East,88,3.0,3.0,71,0.00,,,0.00,Wunderground v.1.15,2013-05-31 17:00:00,
2013-05-31 12:14:00,83.5,73.1,29.65,SE,140,3.0,3.0,71,0.00,,,0.00,Wunderground v.1.15,2013-05-31 17:14:00,
2013-05-31 12:20:00,83.1,72.7,29.65,SSE,156,3.0,7.0,71,0.00,,,0.00,Wunderground v.1.15,2013-05-31 17:20:00,
2013-05-31 12:34:00,82.2,73.1,29.66,SSE,159,2.0,3.0,74,0.00,,,0.00,Wunderground v.1.15,2013-05-31 17:34:00,
2013-05-31 12:40:00,82.7,73.2,29.66,South,183,2.0,3.0,73,0.00,,,0.00,Wunderground v.1.15,2013-05-31 17:40:00,
2013-05-31 12:54:00,82.5,73.0,29.65,SSE,164,3.0,3.0,73,0.00,,,0.00,Wunderground v.1.15,2013-05-31 17:54:00,
2013-05-31 13:00:00,82.8,73.3,29.65,SSE,159,2.0,2.0,73,0.00,,,0.00,Wunderground v.1.15,2013-05-31 18:00:00,
2013-05-31 13:14:00,83.4,73.4,29.65,SSE,167,3.0,3.0,72,0.00,,,0.00,Wunderground v.1.15,2013-05-31 18:14:00,
2013-05-31 13:20:00,83.4,73.0,29.65,SSE,156,4.0,5.0,71,0.00,,,0.00,Wunderground v.1.15,2013-05-31 18:20:00,
2013-05-31 13:34:00,84.4,73.5,29.64,South,187,4.0,4.0,70,0.00,,,0.00,Wunderground v.1.15,2013-05-31 18:34:00,
2013-05-31 13:40:00,84.2,73.3,29.65,SSE,154,4.0,4.0,70,0.00,,,0.00,Wunderground v.1.15,2013-05-31 18:40:00,
2013-05-31 13:54:00,84.7,73.4,29.64,SSE,163,3.0,3.0,69,0.00,,,0.00,Wunderground v.1.15,2013-05-31 18:54:00,
2013-05-31 14:00:00,84.9,73.6,29.64,SSE,162,3.0,3.0,69,0.00,,,0.00,Wunderground v.1.15,2013-05-31 19:00:00,
2013-05-31 14:14:00,84.4,73.5,29.63,South,173,3.0,6.0,70,0.00,,,0.00,Wunderground v.1.15,2013-05-31 19:14:00,
2013-05-31 14:20:00,84.2,73.3,29.63,SSE,155,3.0,7.0,70,0.00,,,0.00,Wunderground v.1.15,2013-05-31 19:20:00,
2013-05-31 14:34:00,84.8,73.5,29.63,SSE,163,4.0,9.0,69,0.00,,,0.00,Wunderground v.1.15,2013-05-31 19:34:00,
2013-05-31 14:40:00,85.0,73.7,29.63,SE,132,4.0,9.0,69,0.00,,,0.00,Wunderground v.1.15,2013-05-31 19:40:00,
2013-05-31 14:54:00,85.4,74.1,29.63,SSE,159,5.0,5.0,69,0.00,,,0.00,Wunderground v.1.15,2013-05-31 19:54:00,
2013-05-31 15:00:00,85.4,73.2,29.62,South,172,4.0,4.0,67,0.00,,,0.00,Wunderground v.1.15,2013-05-31 20:00:00,
2013-05-31 15:14:00,85.7,73.5,29.62,South,188,4.0,4.0,67,0.00,,,0.00,Wunderground v.1.15,2013-05-31 20:14:00,
2013-05-31 15:20:00,86.5,73.8,29.62,SSE,167,3.0,7.0,66,0.00,,,0.00,Wunderground v.1.15,2013-05-31 20:20:00,
2013-05-31 15:34:00,85.8,73.6,29.62,SSE,155,5.0,5.0,67,0.00,,,0.00,Wunderground v.1.15,2013-05-31 20:34:00,
2013-05-31 15:40:00,85.8,73.6,29.62,SSE,167,4.0,5.0,67,0.00,,,0.00,Wunderground v.1.15,2013-05-31 20:40:00,
2013-05-31 15:54:00,86.2,73.5,29.62,South,174,4.0,7.0,66,0.00,,,0.00,Wunderground v.1.15,2013-05-31 20:54:00,
2013-05-31 16:00:00,86.8,73.6,29.61,South,187,3.0,3.0,65,0.00,,,0.00,Wunderground v.1.15,2013-05-31 21:00:00,
2013-05-31 16:14:00,87.9,74.7,29.61,West,269,2.0,4.0,65,0.00,,,0.00,Wunderground v.1.15,2013-05-31 21:14:00,
2013-05-31 16:20:00,88.0,73.8,29.60,South,173,3.0,7.0,63,0.00,,,0.00,Wunderground v.1.15,2013-05-31 21:20:00,
2013-05-31 16:34:00,88.0,73.3,29.59,South,169,5.0,5.0,62,0.00,,,0.00,Wunderground v.1.15,2013-05-31 21:34:00,
2013-05-31 16:40:00,88.1,73.9,29.59,South,175,4.0,10.0,63,0.00,,,0.00,Wunderground v.1.15,2013-05-31 21:40:00,
2013-05-31 16:54:00,88.6,72.9,29.59,South,173,3.0,9.0,60,0.00,,,0.00,Wunderground v.1.15,2013-05-31 21:54:00,
2013-05-31 17:00:00,87.6,72.5,29.59,South,185,4.0,4.0,61,0.00,,,0.00,Wunderground v.1.15,2013-05-31 22:00:00,
2013-05-31 17:14:00,87.5,73.3,29.58,South,175,3.0,3.0,63,0.00,,,0.00,Wunderground v.1.15,2013-05-31 22:14:00,
2013-05-31 17:20:00,87.5,73.3,29.58,South,182,3.0,5.0,63,0.00,,,0.00,Wunderground v.1.15,2013-05-31 22:20:00,
2013-05-31 17:34:00,87.1,73.4,29.54,South,173,5.0,5.0,64,0.00,,,0.00,Wunderground v.1.15,2013-05-31 22:34:00,
2013-05-31 17:40:00,86.8,73.6,29.52,South,175,6.0,9.0,65,0.00,,,0.00,Wunderground v.1.15,2013-05-31 22:40:00,
2013-05-31 17:54:00,86.3,72.7,29.50,South,183,5.0,10.0,64,0.00,,,0.00,Wunderground v.1.15,2013-05-31 22:54:00,
2013-05-31 18:00:00,85.6,72.5,29.51,SSE,155,5.0,5.0,65,0.00,,,0.00,Wunderground v.1.15,2013-05-31 23:00:00,
2013-05-31 18:14:00,85.0,72.8,29.53,SE,132,4.0,4.0,67,0.00,,,0.00,Wunderground v.1.15,2013-05-31 23:14:00,
2013-05-31 18:20:00,84.9,73.2,29.52,SSE,155,4.0,4.0,68,0.00,,,0.00,Wunderground v.1.15,2013-05-31 23:20:00,
2013-05-31 18:34:00,84.5,72.8,29.53,SSE,155,3.0,3.0,68,0.00,,,0.00,Wunderground v.1.15,2013-05-31 23:34:00,
2013-05-31 18:40:00,84.3,72.6,29.53,SSE,156,3.0,3.0,68,0.00,,,0.00,Wunderground v.1.15,2013-05-31 23:40:00,
2013-05-31 18:54:00,84.1,73.3,29.55,SSE,149,1.0,2.0,70,0.00,,,0.00,Wunderground v.1.15,2013-05-31 23:54:00,
2013-05-31 19:00:00,83.9,72.6,29.55,SSE,153,1.0,3.0,69,0.00,,,0.00,Wunderground v.1.15,2013-06-01 00:00:00,
2013-05-31 19:14:00,83.6,72.3,29.55,SE,137,4.0,5.0,69,0.00,,,0.00,Wunderground v.1.15,2013-06-01 00:14:00,
2013-05-31 19:20:00,83.6,72.8,29.55,SSE,156,4.0,6.0,70,0.00,,,0.00,Wunderground v.1.15,2013-06-01 00:20:00,
2013-05-31 19:34:00,83.2,73.2,29.52,SE,134,4.0,7.0,72,0.00,,,0.00,Wunderground v.1.15,2013-06-01 00:34:00,
2013-05-31 19:40:00,83.0,73.0,29.59,SE,144,4.0,7.0,72,0.00,,,0.00,Wunderground v.1.15,2013-06-01 00:40:00,
2013-05-31 19:54:00,82.9,72.9,29.60,South,176,2.0,3.0,72,0.00,,,0.00,Wunderground v.1.15,2013-06-01 00:54:00,
2013-05-31 20:00:00,82.8,72.8,29.59,SSE,155,3.0,3.0,72,0.00,,,0.00,Wunderground v.1.15,2013-06-01 01:00:00,
2013-05-31 20:14:00,82.6,72.7,29.58,South,170,6.0,6.0,72,0.00,,,0.00,Wunderground v.1.15,2013-06-01 01:14:00,
2013-05-31 20:20:00,82.5,72.6,29.63,WSW,240,3.0,6.0,72,0.00,,,0.00,Wunderground v.1.15,2013-06-01 01:20:00,
2013-05-31 20:34:00,82.1,73.4,29.61,South,169,3.0,3.0,75,0.00,,,0.00,Wunderground v.1.15,2013-06-01 01:34:00,
2013-05-31 20:40:00,81.3,73.4,29.60,SSE,168,1.0,3.0,77,0.00,,,0.01,Wunderground v.1.15,2013-06-01 01:40:00,
2013-05-31 20:54:00,80.2,72.7,29.53,SE,146,11.0,13.0,78,0.00,,,0.01,Wunderground v.1.15,2013-06-01 01:54:00,
2013-05-31 21:00:00,80.9,72.6,29.55,SSE,151,11.0,11.0,76,0.00,,,0.01,Wunderground v.1.15,2013-06-01 02:00:00,
2013-05-31 21:14:00,81.2,72.5,29.54,SSE,148,7.0,12.0,75,0.00,,,0.01,Wunderground v.1.15,2013-06-01 02:14:00,
2013-05-31 21:20:00,81.8,72.3,29.55,SE,130,5.0,12.0,73,0.00,,,0.01,Wunderground v.1.15,2013-06-01 02:20:00,
2013-05-31 21:34:00,81.7,72.6,29.59,SSE,160,2.0,3.0,74,0.00,,,0.01,Wunderground v.1.15,2013-06-01 02:34:00,
2013-05-31 21:40:00,81.6,72.5,29.58,SSE,156,2.0,3.0,74,0.00,,,0.01,Wunderground v.1.15,2013-06-01 02:40:00,
2013-05-31 21:54:00,81.4,72.3,29.59,West,272,1.0,1.0,74,0.00,,,0.01,Wunderground v.1.15,2013-06-01 02:54:00,
2013-05-31 22:00:00,81.5,72.4,29.57,South,175,1.0,4.0,74,0.00,,,0.01,Wunderground v.1.15,2013-06-01 03:00:00,
2013-05-31 22:14:00,81.4,72.3,29.59,SW,215,0.0,3.0,74,0.00,,,0.01,Wunderground v.1.15,2013-06-01 03:14:00,
2013-05-31 22:20:00,81.3,72.2,29.60,SW,221,1.0,3.0,74,0.00,,,0.01,Wunderground v.1.15,2013-06-01 03:20:00,
2013-05-31 22:34:00,81.4,72.3,29.65,WSW,240,1.0,1.0,74,0.00,,,0.01,Wunderground v.1.15,2013-06-01 03:34:00,
2013-05-31 22:40:00,81.5,72.4,29.65,WSW,240,0.0,2.0,74,0.00,,,0.01,Wunderground v.1.15,2013-06-01 03:40:00,
2013-05-31 22:54:00,81.4,72.3,29.59,SSE,164,3.0,5.0,74,0.00,,,0.01,Wunderground v.1.15,2013-06-01 03:54:00,
2013-05-31 23:00:00,81.0,72.3,29.57,SE,144,6.0,6.0,75,0.00,,,0.02,Wunderground v.1.15,2013-06-01 04:00:00,
2013-05-31 23:02:00,80.9,72.2,29.56,South,178,7.0,7.0,75,0.00,,,0.02,Wunderground v.1.15,2013-06-01 04:02:00,
2013-05-31 23:14:00,81.4,71.9,29.59,ESE,105,5.0,5.0,73,0.00,,,0.02,Wunderground v.1.15,2013-06-01 04:14:00,
2013-05-31 23:16:00,81.6,71.7,29.60,NNW,348,4.0,6.0,72,0.00,,,0.02,Wunderground v.1.15,2013-06-01 04:16:00,
2013-05-31 23:22:00,77.8,68.8,29.60,North,355,5.0,6.0,74,0.00,,,0.02,Wunderground v.1.15,2013-06-01 04:22:00,
2013-05-31 23:34:00,74.6,69.4,29.60,East,82,2.0,2.0,84,0.00,,,0.02,Wunderground v.1.15,2013-06-01 04:34:00,
2013-05-31 23:40:00,74.4,69.2,29.60,East,80,1.0,2.0,84,0.00,,,0.02,Wunderground v.1.15,2013-06-01 04:40:00,
2013-05-31 23:54:00,71.3,66.9,29.61,NNW,346,5.0,6.0,86,0.00,,,0.02,Wunderground v.1.15,2013-06-01 04:54:00,
2013-05-31 23:56:00,70.9,66.8,29.61,NNW,330,6.0,7.0,87,0.00,,,0.02,Wunderground v.1.15,2013-06-01 04:56:00,